Location: Yellowknife
(62.4500°N, 114.3500°W)
Time: 07:53:15
(UTC-06:00)

Amateur Radio Satellites - All Passes

Search period start: 23 June 2017 07:23
Search period end: 24 June 2017 07:23
Location: Yellowknife, 62.4500°N, 114.3500°W

Satellite Date Start Highest point End Downlink Frequencies (MHz)
Time Altitude Azimuth
AO-85 23 Jun 07:27:40 07:29:26 13° 242° (WSW) 07:31:14 145.980
BEESAT 3 23 Jun 07:28:51 07:31:29 17° 238° (WSW) 07:34:05 437.485
CUTE-I 23 Jun 07:37:54 07:42:56 38° 96° (E) 07:47:57 437.470
TIGRISAT 23 Jun 07:39:36 07:41:59 14° 34° (NE) 07:44:23 435.000
DOVE 4 23 Jun 07:39:56 07:44:34 71° 105° (ESE) 07:49:30 437.250
CUBEBUG 2 23 Jun 07:44:52 07:46:30 12° 76° (ENE) 07:48:08 437.445
SEEDS 23 Jun 07:50:07 07:51:40 12° 79° (E) 07:53:14 437.485
NUDT-PHONESAT 23 Jun 07:54:00 07:57:36 43° 99° (E) 08:01:10 437.300
YUBILEINY 23 Jun 07:55:03 08:03:09 37° 45° (NE) 08:11:12 435.215
XW-2A 23 Jun 07:55:07 07:56:02 11° 83° (E) 07:56:57 145.665 - 145.685
RS-15 23 Jun 07:56:43 08:07:47 43° 244° (WSW) 08:18:26 29.354- 29.394
XW-2F 23 Jun 08:00:49 08:04:36 57° 103° (ESE) 08:08:18 145.980 - 146.000
CUTE 1.7 + AOD 2 23 Jun 08:01:16 08:04:19 19° 86° (E) 08:07:22 437.475
STRAND 1 23 Jun 08:02:32 08:07:39 66° 255° (WSW) 08:12:50 437.568
XW-2D 23 Jun 08:02:49 08:06:38 63° 103° (ESE) 08:10:23 145.860 - 145.880
Oscar 19 23 Jun 08:04:21 08:05:20 11° 348° (NNW) 08:06:18 437.125/150
LilacSat-2 23 Jun 08:07:42 08:11:33 71° 104° (ESE) 08:15:21 437.200
XW-2B 23 Jun 08:11:45 08:15:35 73° 106° (ESE) 08:19:22 145.730 - 145.750
HO-68 23 Jun 08:14:04 08:20:25 32° 90° (E) 08:26:41 435.675
M-CUBED/EXP-1 PRIME 23 Jun 08:18:23 08:21:23 34° 51° (NE) 08:24:25 437.505
UNISAT 6 23 Jun 08:19:17 08:22:45 21° 44° (NE) 08:26:15 437.425
PRISM 23 Jun 08:19:50 08:22:39 18° 45° (NE) 08:25:29 437.425
BEESAT 2 23 Jun 08:21:41 08:24:02 15° 240° (WSW) 08:26:22 435.950
UWE-3 23 Jun 08:23:42 08:26:21 15° 80° (E) 08:28:57 435.000/436.395/437.385
XW-2C 23 Jun 08:27:07 08:30:58 85° 285° (WNW) 08:34:46 145.795 - 145.815
O/OREOS (USA 219) 23 Jun 08:32:52 08:37:06 41° 243° (WSW) 08:41:17 437.305
FO-29 23 Jun 08:33:26 08:39:27 41° 47° (NE) 08:46:10 435.910
ITAMSAT 1 23 Jun 08:34:44 08:38:12 18° 327° (NNW) 08:41:39 435.822/435.867
Gurwin Techsat 1B 23 Jun 08:35:40 08:37:07 11° 350° (N) 08:38:34 435.225
KAITUO 1B 23 Jun 08:48:11 08:51:56 68° 291° (WNW) 08:55:37 145.475/437.950
AAUSAT CUBESAT 2 23 Jun 08:48:24 08:51:19 18° 86° (E) 08:54:14 437.432
AO-7 23 Jun 09:00:32 09:07:54 36° 332° (NNW) 09:15:17 .
TIGRISAT 23 Jun 09:13:19 09:17:34 37° 56° (ENE) 09:21:55 435.000
DOVE 4 23 Jun 09:17:59 09:22:03 31° 305° (NW) 09:26:19 437.250
CUTE-I 23 Jun 09:17:59 09:23:19 62° 298° (WNW) 09:28:38 437.470
CUBEBUG 2 23 Jun 09:19:44 09:24:21 46° 98° (E) 09:28:54 437.445
SEEDS 23 Jun 09:24:14 09:28:21 53° 101° (ESE) 09:32:26 437.485
XW-2A 23 Jun 09:26:05 09:29:32 61° 103° (ESE) 09:32:56 145.665 - 145.685
AO-73 23 Jun 09:26:58 09:30:41 24° 88° (E) 09:34:18 145.935
NUDT-PHONESAT 23 Jun 09:28:03 09:31:29 35° 300° (WNW) 09:34:53 437.300
XW-2F 23 Jun 09:35:15 09:38:33 28° 304° (WNW) 09:41:48 145.980 - 146.000
CUTE 1.7 + AOD 2 23 Jun 09:36:32 09:40:48 88° 107° (ESE) 09:45:01 437.475
XW-2D 23 Jun 09:37:22 09:40:36 26° 305° (NW) 09:43:48 145.860 - 145.880
POLYITAN 1 23 Jun 09:40:59 09:43:11 14° 37° (NE) 09:45:24 437.675
Oscar 19 23 Jun 09:41:40 09:42:40 11° 12° (NNE) 09:43:41 437.125/150
LilacSat-2 23 Jun 09:42:24 09:45:33 25° 306° (NW) 09:48:41 437.200
STRAND 1 23 Jun 09:44:24 09:47:51 18° 277° (W) 09:51:20 437.568
XW-2B 23 Jun 09:46:22 09:49:29 24° 306° (NW) 09:52:33 145.730 - 145.750
QB50P2 23 Jun 09:51:06 09:53:42 16° 41° (NE) 09:56:17 145.880/145.840
YUBILEINY 23 Jun 09:52:24 10:01:21 83° 73° (ENE) 10:10:13 435.215
M-CUBED/EXP-1 PRIME 23 Jun 09:52:49 09:55:54 38° 252° (WSW) 09:59:01 437.505
PRISM 23 Jun 09:53:19 09:57:21 68° 67° (ENE) 10:01:25 437.425
UNISAT 6 23 Jun 09:54:11 09:58:48 66° 66° (ENE) 10:03:30 437.425
Oscar 11 23 Jun 09:57:23 10:01:15 31° 93° (E) 10:05:05 .
UWE-3 23 Jun 09:59:08 10:03:48 60° 102° (ESE) 10:08:21 435.000/436.395/437.385
ZACube-1 23 Jun 10:00:09 10:04:31 42° 97° (E) 10:08:47 437.345
HO-68 23 Jun 10:01:49 10:09:05 88° 112° (ESE) 10:16:18 435.675
XW-2C 23 Jun 10:01:55 10:04:42 20° 310° (NW) 10:07:28 145.795 - 145.815
AIST 2D 23 Jun 10:07:36 10:10:10 19° 52° (NE) 10:12:44 435.315
RS-15 23 Jun 10:10:35 10:16:33 15° 273° (W) 10:22:25 29.354- 29.394
Gurwin Techsat 1B 23 Jun 10:13:13 10:15:03 12° 15° (NNE) 10:16:55 435.225
ITAMSAT 1 23 Jun 10:14:38 10:15:55 11° 351° (N) 10:17:12 435.822/435.867
EO-79 23 Jun 10:15:50 10:18:56 20° 46° (NE) 10:22:03 145.935-145.965
FO-29 23 Jun 10:17:42 10:24:05 80° 252° (WSW) 10:31:23 435.910
BUGSAT 1 23 Jun 10:20:24 10:21:47 11° 33° (NNE) 10:23:11 437.445
KAITUO 1B 23 Jun 10:22:56 10:25:22 17° 313° (NW) 10:27:46 145.475/437.950
AAUSAT CUBESAT 2 23 Jun 10:23:16 10:27:25 87° 107° (ESE) 10:31:32 437.432
DUCHIFAT 1 23 Jun 10:32:46 10:36:01 22° 48° (NE) 10:39:17 145.980
DELFI C3 23 Jun 10:38:43 10:41:58 24° 91° (E) 10:45:13 145.870
NANOSAT C BR1 23 Jun 10:39:32 10:43:01 25° 50° (NE) 10:46:30 145.865
EO-88 23 Jun 10:42:11 10:44:51 19° 89° (E) 10:47:30 145.990 - 145.960
TIGRISAT 23 Jun 10:49:33 10:54:08 59° 258° (WSW) 10:58:50 435.000
AO-7 23 Jun 10:52:05 10:58:49 28° 359° (N) 11:05:33 .
CUBEBUG 2 23 Jun 10:56:27 11:01:02 46° 299° (WNW) 11:05:32 437.445
DOVE 4 23 Jun 10:56:52 10:58:37 12° 327° (NNW) 11:00:24 437.250
CUTE-I 23 Jun 10:58:28 11:02:36 23° 320° (NW) 11:06:44 437.470
XW-2A 23 Jun 10:59:13 11:02:02 24° 305° (NW) 11:04:51 145.665 - 145.685
SEEDS 23 Jun 11:00:10 11:03:57 34° 302° (WNW) 11:07:43 437.485
AO-73 23 Jun 11:02:53 11:07:28 80° 289° (WNW) 11:11:55 145.935
NUDT-PHONESAT 23 Jun 11:03:43 11:04:27 10° 322° (NW) 11:05:12 437.300
CUTE 1.7 + AOD 2 23 Jun 11:12:51 11:16:14 24° 309° (NW) 11:19:35 437.475
POLYITAN 1 23 Jun 11:14:01 11:18:03 41° 59° (ENE) 11:22:06 437.675
Oscar 19 23 Jun 11:16:46 11:20:19 19° 36° (NE) 11:23:51 437.125/150
QB50P2 23 Jun 11:24:32 11:28:41 50° 62° (ENE) 11:32:52 145.880/145.840
PRISM 23 Jun 11:29:39 11:33:02 25° 268° (W) 11:36:26 437.425
UNISAT 6 23 Jun 11:31:46 11:35:53 30° 268° (W) 11:40:04 437.425
Oscar 11 23 Jun 11:33:25 11:37:41 59° 295° (WNW) 11:41:56 .
UWE-3 23 Jun 11:35:50 11:40:06 36° 304° (NW) 11:44:19 435.000/436.395/437.385
ZACube-1 23 Jun 11:36:30 11:40:54 46° 299° (WNW) 11:45:12 437.345
AIST 2D 23 Jun 11:39:23 11:42:57 90° 69° (ENE) 11:46:33 435.315
Gurwin Techsat 1B 23 Jun 11:49:24 11:53:22 22° 39° (NE) 11:57:21 435.225
YUBILEINY 23 Jun 11:49:36 11:57:33 39° 279° (W) 12:05:28 435.215
HO-68 23 Jun 11:49:47 11:56:22 40° 318° (NW) 12:02:54 435.675
EO-79 23 Jun 11:49:51 11:54:07 70° 67° (ENE) 11:58:24 145.935-145.965
ITAMSAT 1 23 Jun 11:51:33 11:53:26 12° 15° (NNE) 11:55:19 435.822/435.867
BUGSAT 1 23 Jun 11:52:21 11:56:04 32° 55° (NE) 11:59:50 437.445
ESTCUBE 1 23 Jun 11:53:11 11:55:55 16° 83° (E) 11:58:38 437.505/2401.250
AAUSAT CUBESAT 2 23 Jun 11:59:13 12:02:29 23° 309° (NW) 12:05:44 437.432
FO-29 23 Jun 12:04:59 12:10:21 27° 278° (W) 12:16:16 435.910
DUCHIFAT 1 23 Jun 12:06:56 12:11:11 80° 68° (ENE) 12:15:29 145.980
DELFI C3 23 Jun 12:13:13 12:17:08 66° 292° (WNW) 12:21:02 145.870
NANOSAT C BR1 23 Jun 12:14:04 12:18:20 85° 252° (WSW) 12:22:39 145.865
EO-88 23 Jun 12:15:19 12:19:01 79° 289° (WNW) 12:22:40 145.990 - 145.960
TIGRISAT 23 Jun 12:29:14 12:31:50 15° 280° (W) 12:34:29 435.000
CUBEBUG 2 23 Jun 12:33:46 12:36:42 16° 322° (NW) 12:39:38 437.445
SEEDS 23 Jun 12:37:11 12:38:37 12° 324° (NW) 12:40:02 437.485
CUTE-I 23 Jun 12:38:56 12:41:02 12° 344° (NNW) 12:43:09 437.470
AO-73 23 Jun 12:39:36 12:43:10 23° 312° (NW) 12:46:40 145.935
AO-7 23 Jun 12:42:25 12:49:41 35° 26° (NNE) 12:57:01 .
SPROUT 23 Jun 12:45:58 12:48:26 15° 83° (E) 12:50:54 437.525
LO-87 23 Jun 12:46:09 12:49:41 46° 100° (E) 12:53:13 145.935 - 145.965
POLYITAN 1 23 Jun 12:49:43 12:53:51 45° 261° (W) 12:58:02 437.675
Oscar 19 23 Jun 12:53:45 12:58:44 50° 59° (ENE) 13:03:42 437.125/150
QB50P2 23 Jun 13:00:41 13:04:39 36° 264° (W) 13:08:39 145.880/145.840
Oscar 11 23 Jun 13:10:14 13:13:07 18° 317° (NW) 13:16:00 .
UWE-3 23 Jun 13:13:10 13:15:27 14° 326° (NW) 13:17:42 435.000/436.395/437.385
ZACube-1 23 Jun 13:13:32 13:16:17 16° 321° (NW) 13:18:59 437.345
AIST 2D 23 Jun 13:14:25 13:16:42 16° 273° (W) 13:19:00 435.315
ISS 23 Jun 13:15:03 13:16:36 13° 173° (S) 13:18:09 437.550
Tancredo 1 23 Jun 13:25:02 13:26:12 12° 182° (S) 13:27:20 437.200
EO-79 23 Jun 13:26:42 13:30:18 26° 269° (W) 13:33:55 145.935-145.965
BUGSAT 1 23 Jun 13:27:08 13:31:16 60° 257° (WSW) 13:35:29 437.445
Gurwin Techsat 1B 23 Jun 13:27:17 13:32:30 58° 61° (ENE) 13:37:45 435.225
ITAMSAT 1 23 Jun 13:27:21 13:31:19 22° 39° (NE) 13:35:17 435.822/435.867
ESTCUBE 1 23 Jun 13:29:07 13:33:37 67° 105° (ESE) 13:38:05 437.505/2401.250
HO-68 23 Jun 13:37:13 13:42:33 23° 343° (NNW) 13:47:53 435.675
VELOX 1 23 Jun 13:41:26 13:45:26 32° 95° (E) 13:49:26 145.980
DUCHIFAT 1 23 Jun 13:44:00 13:47:23 22° 271° (W) 13:50:47 145.980
YUBILEINY 23 Jun 13:47:45 13:51:46 14° 306° (NW) 13:55:47 435.215
DELFI C3 23 Jun 13:48:43 13:51:19 17° 314° (NW) 13:53:55 145.870
EO-88 23 Jun 13:49:39 13:52:12 18° 311° (NW) 13:54:45 145.990 - 145.960
NANOSAT C BR1 23 Jun 13:51:38 13:54:43 19° 273° (W) 13:57:47 145.865
PCSat 23 Jun 13:54:03 13:58:39 29° 119° (ESE) 14:03:17 145.827
DX 1 23 Jun 14:09:05 14:12:41 24° 91° (E) 14:16:15 434.975-435.025
CUTE-I 23 Jun 14:17:33 14:19:06 11° 9° (N) 14:20:40 437.470
LO-87 23 Jun 14:19:48 14:23:03 31° 301° (WNW) 14:26:19 145.935 - 145.965
SPROUT 23 Jun 14:20:53 14:25:13 65° 104° (ESE) 14:29:30 437.525
50 SAT 23 Jun 14:26:51 14:30:04 37° 99° (E) 14:33:16 437.505
POLYITAN 1 23 Jun 14:30:06 14:30:46 10° 282° (WNW) 14:31:27 437.675
UKube-1 23 Jun 14:31:10 14:34:52 26° 93° (E) 14:38:32 .
AO-7 23 Jun 14:33:11 14:41:25 65° 52° (NE) 14:49:41 .
Oscar 19 23 Jun 14:33:12 14:38:11 46° 261° (W) 14:43:10 437.125/150
ISS 23 Jun 14:50:52 14:52:06 12° 193° (SSW) 14:53:20 437.550
BEESAT 23 Jun 15:04:05 15:05:32 11° 77° (ENE) 15:06:59 436.000
ITAMSAT 1 23 Jun 15:04:52 15:10:01 61° 62° (ENE) 15:15:12 435.822/435.867
BUGSAT 1 23 Jun 15:05:29 15:07:33 13° 278° (W) 15:09:38 437.445
ESTCUBE 1 23 Jun 15:06:14 15:10:12 31° 306° (NW) 15:14:10 437.505/2401.250
Gurwin Techsat 1B 23 Jun 15:07:43 15:12:44 41° 263° (W) 15:17:47 435.225
VELOX 1 23 Jun 15:17:48 15:22:11 59° 296° (WNW) 15:26:32 145.980
HO-68 23 Jun 15:23:09 15:28:14 21° 9° (N) 15:33:18 435.675
PCSat 23 Jun 15:36:03 15:41:30 80° 142° (SE) 15:46:59 145.827
DOVE 4 23 Jun 15:43:38 15:46:12 16° 39° (NE) 15:48:51 437.250
DX 1 23 Jun 15:44:58 15:49:21 77° 292° (WNW) 15:53:43 434.975-435.025
CUTE-I 23 Jun 15:53:47 15:57:22 19° 33° (NNE) 16:01:00 437.470
LilacSat-2 23 Jun 15:55:25 15:56:08 10° 37° (NE) 15:56:50 437.200
SPROUT 23 Jun 15:57:06 16:00:54 31° 306° (NW) 16:04:42 437.525
XW-2B 23 Jun 15:58:59 15:59:41 10° 37° (NE) 16:00:24 145.730 - 145.750
50 SAT 23 Jun 15:59:45 16:02:53 34° 300° (WNW) 16:06:00 437.505
UKube-1 23 Jun 16:06:59 16:11:18 70° 293° (WNW) 16:15:37 .
XW-2C 23 Jun 16:13:11 16:14:52 12° 41° (NE) 16:16:31 145.795 - 145.815
SO-50 23 Jun 16:15:00 16:18:26 21° 124° (SE) 16:21:52 436.795
Oscar 19 23 Jun 16:16:48 16:18:51 12° 283° (WNW) 16:20:56 437.125/150
AO-7 23 Jun 16:26:21 16:34:30 55° 256° (WSW) 16:42:45 .
ITUPSAT 1 23 Jun 16:28:23 16:32:54 37° 97° (E) 16:37:22 437.325
MOZHAYETS 4 23 Jun 16:31:12 16:35:20 31° 93° (E) 16:39:25
KAITUO 1B 23 Jun 16:32:48 16:34:46 14° 44° (NE) 16:36:43 145.475/437.950
BEESAT 23 Jun 16:39:57 16:44:35 45° 99° (E) 16:49:11 436.000
ESTCUBE 1 23 Jun 16:44:09 16:45:52 12° 329° (NNW) 16:47:35 437.505/2401.250
ITAMSAT 1 23 Jun 16:44:57 16:49:48 38° 264° (W) 16:54:42 435.822/435.867
Gurwin Techsat 1B 23 Jun 16:52:55 16:54:13 11° 286° (WNW) 16:55:31 435.225
VELOX 1 23 Jun 16:54:54 16:57:56 18° 318° (NW) 17:00:57 145.980
CUBESAT XI-V 23 Jun 17:06:18 17:09:36 19° 85° (E) 17:12:52 437.345
HO-68 23 Jun 17:08:00 17:14:10 32° 35° (NE) 17:20:21 435.675
NUDT-PHONESAT 23 Jun 17:10:34 17:13:30 22° 52° (NE) 17:16:26 437.300
XW-2F 23 Jun 17:18:25 17:21:42 28° 56° (NE) 17:24:59 145.980 - 146.000
CUBEBUG 2 23 Jun 17:18:52 17:20:58 13° 32° (NNE) 17:23:05 437.445
SEEDS 23 Jun 17:18:58 17:20:13 11° 35° (NE) 17:21:29 437.485
DOVE 4 23 Jun 17:18:58 17:23:03 49° 62° (ENE) 17:27:20 437.250
PCSat 23 Jun 17:19:51 17:25:14 58° 346° (NNW) 17:30:39 145.827
XW-2D 23 Jun 17:20:39 17:24:01 30° 57° (ENE) 17:27:24 145.860 - 145.880
DX 1 23 Jun 17:21:41 17:25:01 22° 314° (NW) 17:28:21 434.975-435.025
STARS 23 Jun 17:23:48 17:23:59 10° 77° (ENE) 17:24:10 437.465
LilacSat-2 23 Jun 17:25:57 17:29:26 33° 59° (ENE) 17:32:56 437.200
XW-2B 23 Jun 17:29:27 17:32:55 33° 59° (ENE) 17:36:24 145.730 - 145.750
CUTE 1.7 + AOD 2 23 Jun 17:30:22 17:32:53 16° 42° (NE) 17:35:25 437.475
CUTE-I 23 Jun 17:31:19 17:36:24 45° 56° (NE) 17:41:30 437.470
SPROUT 23 Jun 17:34:21 17:35:42 11° 328° (NNW) 17:37:03 437.525
UKube-1 23 Jun 17:43:35 17:46:45 20° 315° (NW) 17:49:55 .
XW-2C 23 Jun 17:44:35 17:48:14 42° 63° (ENE) 17:51:53 145.795 - 145.815
SO-50 23 Jun 17:53:46 17:58:15 63° 146° (SSE) 18:02:45 436.795
UWE-3 23 Jun 17:56:41 17:59:15 15° 36° (NE) 18:01:48 435.000/436.395/437.385
ZACube-1 23 Jun 17:57:59 17:59:36 12° 31° (NNE) 18:01:13 437.345
KAITUO 1B 23 Jun 18:04:22 18:08:03 50° 65° (ENE) 18:11:44 145.475/437.950
ITUPSAT 1 23 Jun 18:06:14 18:10:58 56° 298° (WNW) 18:15:40 437.325
MOZHAYETS 4 23 Jun 18:08:15 18:12:51 64° 294° (WNW) 18:17:24
AAUSAT CUBESAT 2 23 Jun 18:15:26 18:17:41 14° 41° (NE) 18:19:56 437.432
BEESAT 23 Jun 18:17:50 18:22:28 47° 301° (WNW) 18:27:03 436.000
KKS-1 23 Jun 18:21:14 18:25:32 42° 99° (E) 18:29:48 437.445
AO-7 23 Jun 18:23:39 18:29:23 20° 282° (WNW) 18:35:09 .
XW-2A 23 Jun 18:35:31 18:38:18 23° 56° (NE) 18:41:08 145.665 - 145.685
CUBESAT XI-V 23 Jun 18:43:05 18:47:44 79° 106° (ESE) 18:52:21 437.345
NUDT-PHONESAT 23 Jun 18:43:15 18:47:02 82° 252° (WSW) 18:50:50 437.300
SEEDS 23 Jun 18:51:06 18:54:51 32° 57° (ENE) 18:58:37 437.485
XW-2F 23 Jun 18:51:51 18:55:38 60° 257° (WSW) 18:59:27 145.980 - 146.000
CUBEBUG 2 23 Jun 18:52:14 18:56:24 33° 54° (NE) 19:00:38 437.445
HO-68 23 Jun 18:53:55 19:01:04 70° 59° (ENE) 19:08:15 435.675
XW-2D 23 Jun 18:54:17 18:58:04 55° 258° (WSW) 19:01:52 145.860 - 145.880
DOVE 4 23 Jun 18:57:04 19:00:58 35° 265° (W) 19:05:02 437.250
STARS 23 Jun 18:57:15 19:01:31 43° 99° (E) 19:05:46 437.465
AO-73 23 Jun 18:57:59 19:01:17 20° 45° (NE) 19:04:36 145.935
LilacSat-2 23 Jun 18:59:52 19:03:39 49° 260° (W) 19:07:26 437.200
XW-2B 23 Jun 19:03:18 19:07:03 48° 260° (W) 19:10:47 145.730 - 145.750
CUTE 1.7 + AOD 2 23 Jun 19:03:49 19:07:56 50° 64° (ENE) 19:12:04 437.475
PCSat 23 Jun 19:03:57 19:09:20 56° 11° (NNE) 19:14:43 145.827
CUTE-I 23 Jun 19:11:12 19:16:27 55° 258° (WSW) 19:21:45 437.470
XW-2C 23 Jun 19:18:57 19:22:31 36° 263° (W) 19:26:07 145.795 - 145.815
Oscar 11 23 Jun 19:27:34 19:31:00 23° 49° (NE) 19:34:25 .
UWE-3 23 Jun 19:30:20 19:34:40 40° 59° (ENE) 19:39:04 435.000/436.395/437.385
ZACube-1 23 Jun 19:30:41 19:34:41 30° 53° (NE) 19:38:41 437.345
SO-50 23 Jun 19:34:14 19:38:47 72° 349° (N) 19:43:20 436.795
KAITUO 1B 23 Jun 19:38:54 19:42:16 29° 266° (W) 19:45:38 145.475/437.950
ITUPSAT 1 23 Jun 19:44:37 19:48:01 19° 320° (NW) 19:51:24 437.325
MOZHAYETS 4 23 Jun 19:45:59 19:49:19 20° 317° (NW) 19:52:39
AAUSAT CUBESAT 2 23 Jun 19:48:22 19:52:20 47° 63° (ENE) 19:56:19 437.432
BEESAT 23 Jun 19:56:14 19:59:21 17° 323° (NW) 20:02:26 436.000
KKS-1 23 Jun 19:57:53 20:02:11 46° 301° (WNW) 20:06:28 437.445
EO-88 23 Jun 19:58:58 20:00:21 12° 41° (NE) 20:01:45 145.990 - 145.960
DELFI C3 23 Jun 20:01:21 20:03:47 16° 45° (NE) 20:06:15 145.870
STRAND 1 23 Jun 20:02:03 20:06:01 22° 86° (E) 20:09:57 437.568
XW-2A 23 Jun 20:07:22 20:10:49 64° 256° (WSW) 20:14:17 145.665 - 145.685
NUDT-PHONESAT 23 Jun 20:19:12 20:21:33 16° 274° (W) 20:23:55 437.300
CUBESAT XI-V 23 Jun 20:20:51 20:24:47 28° 309° (NW) 20:28:41 437.345
SEEDS 23 Jun 20:26:15 20:30:25 57° 258° (WSW) 20:34:34 437.485
RS-15 23 Jun 20:26:58 20:33:47 17° 90° (E) 20:40:35 29.354- 29.394
CUBEBUG 2 23 Jun 20:28:07 20:32:46 68° 256° (WSW) 20:37:33 437.445
XW-2F 23 Jun 20:29:00 20:30:36 12° 278° (W) 20:32:11 145.980 - 146.000
XW-2D 23 Jun 20:31:56 20:33:08 11° 279° (W) 20:34:20 145.860 - 145.880
AO-73 23 Jun 20:32:19 20:36:51 64° 66° (ENE) 20:41:25 145.935
STARS 23 Jun 20:33:42 20:37:56 45° 301° (WNW) 20:42:11 437.465
LilacSat-2 23 Jun 20:38:40 20:38:53 10° 281° (W) 20:39:05 437.200
CUTE 1.7 + AOD 2 23 Jun 20:40:04 20:43:59 35° 265° (W) 20:47:54 437.475
HO-68 23 Jun 20:42:24 20:49:16 45° 263° (W) 20:56:10 435.675
PCSat 23 Jun 20:47:38 20:53:08 86° 214° (SSW) 20:58:35 145.827
CUTE-I 23 Jun 20:54:43 20:57:45 15° 281° (W) 21:00:48 437.470
Oscar 11 23 Jun 21:02:18 21:06:41 86° 67° (ENE) 21:11:04 .
ZACube-1 23 Jun 21:06:04 21:10:40 74° 254° (WSW) 21:15:18 437.345
UWE-3 23 Jun 21:06:32 21:11:05 52° 260° (W) 21:15:42 435.000/436.395/437.385
YUBILEINY 23 Jun 21:13:46 21:20:08 23° 67° (ENE) 21:26:29 435.215
FO-29 23 Jun 21:15:01 21:19:31 16° 70° (ENE) 21:24:06 435.910
SO-50 23 Jun 21:15:02 21:19:34 73° 13° (NNE) 21:24:06 436.795
AAUSAT CUBESAT 2 23 Jun 21:24:08 21:27:57 35° 264° (W) 21:31:47 437.432
ESTCUBE 1 23 Jun 21:28:09 21:30:56 16° 39° (NE) 21:33:43 437.505/2401.250
EO-88 23 Jun 21:29:43 21:33:14 41° 62° (ENE) 21:36:44 145.990 - 145.960
DELFI C3 23 Jun 21:34:03 21:37:55 60° 67° (ENE) 21:41:49 145.870
KKS-1 23 Jun 21:35:11 21:37:53 16° 322° (NW) 21:40:34 437.445
STRAND 1 23 Jun 21:40:48 21:46:01 80° 108° (ESE) 21:51:12 437.568
VELOX 1 23 Jun 21:41:05 21:42:03 11° 28° (NNE) 21:43:01 145.980
XW-2A 23 Jun 21:43:05 21:44:17 11° 277° (W) 21:45:28 145.665 - 145.685
AO-85 23 Jun 21:52:41 21:53:55 11° 117° (ESE) 21:55:09 145.980
CUBESAT XI-V 23 Jun 21:59:29 22:00:54 11° 331° (NNW) 22:02:19 437.345
LO-87 23 Jun 22:00:01 22:02:47 21° 53° (NE) 22:05:35 145.935 - 145.965
SEEDS 23 Jun 22:05:07 22:07:02 13° 279° (W) 22:08:57 437.485
CUBEBUG 2 23 Jun 22:07:13 22:10:18 17° 278° (W) 22:13:24 437.445
AO-73 23 Jun 22:09:22 22:13:26 31° 268° (W) 22:17:31 145.935
STARS 23 Jun 22:10:49 22:13:24 15° 323° (NW) 22:16:01 437.465
SPROUT 23 Jun 22:15:48 22:18:03 14° 38° (NE) 22:20:17 437.525
TIGRISAT 23 Jun 22:30:24 22:33:40 18° 84° (E) 22:36:52 435.000
PCSat 23 Jun 22:31:17 22:36:05 32° 239° (WSW) 22:40:50 145.827
RS-15 23 Jun 22:31:33 22:42:48 45° 118° (ESE) 22:54:04 29.354- 29.394
HO-68 23 Jun 22:35:23 22:39:05 14° 288° (WNW) 22:42:48 435.675
Oscar 11 23 Jun 22:40:01 22:43:24 21° 272° (W) 22:46:46 .
ZACube-1 23 Jun 22:44:36 22:47:45 18° 276° (W) 22:50:54 437.345
UWE-3 23 Jun 22:46:28 22:48:38 13° 282° (WNW) 22:50:50 435.000/436.395/437.385
M-CUBED/EXP-1 PRIME 23 Jun 22:54:25 22:57:06 20° 101° (E) 22:59:55 437.505
SO-50 23 Jun 22:55:35 23:00:03 58° 216° (SW) 23:04:30 436.795
O/OREOS (USA 219) 23 Jun 22:56:09 22:59:52 25° 109° (ESE) 23:03:35 437.305
PRISM 23 Jun 22:59:03 23:02:26 24° 92° (E) 23:05:49 437.425
FO-29 23 Jun 22:59:15 23:06:31 46° 94° (E) 23:14:02 435.910
ESTCUBE 1 23 Jun 23:02:34 23:06:54 49° 61° (ENE) 23:11:15 437.505/2401.250
EO-88 23 Jun 23:03:36 23:07:00 34° 263° (W) 23:10:25 145.990 - 145.960
BEESAT 3 23 Jun 23:04:16 23:07:27 23° 127° (SE) 23:10:40 437.485
YUBILEINY 23 Jun 23:06:38 23:15:15 62° 93° (E) 23:23:55 435.215
DELFI C3 23 Jun 23:09:41 23:13:01 26° 268° (W) 23:16:23 145.870
UNISAT 6 23 Jun 23:11:28 23:15:47 34° 94° (E) 23:20:02 437.425
VELOX 1 23 Jun 23:13:36 23:17:16 27° 51° (NE) 23:20:59 145.980
STRAND 1 23 Jun 23:20:19 23:24:52 32° 310° (NW) 23:29:25 437.568
AO-85 23 Jun 23:29:39 23:33:23 41° 138° (SE) 23:37:06 145.980
LO-87 23 Jun 23:32:18 23:35:53 78° 253° (WSW) 23:39:31 145.935 - 145.965
50 SAT 23 Jun 23:37:19 23:39:39 18° 50° (NE) 23:42:00 437.505
DX 1 23 Jun 23:40:01 23:43:21 22° 46° (NE) 23:46:42 434.975-435.025
SPROUT 23 Jun 23:49:00 23:53:02 42° 60° (ENE) 23:57:07 437.525
BEESAT 2 23 Jun 23:58:21 00:01:45 26° 129° (SE) 00:05:11 435.950
UKube-1 24 Jun 00:01:04 00:04:28 23° 48° (NE) 00:07:54 .
TIGRISAT 24 Jun 00:06:25 00:11:10 73° 105° (ESE) 00:15:50 435.000
POLYITAN 1 24 Jun 00:23:50 00:26:44 17° 85° (E) 00:29:36 437.675
AIST 2D 24 Jun 00:27:05 00:30:06 25° 93° (E) 00:33:04 435.315
M-CUBED/EXP-1 PRIME 24 Jun 00:28:29 00:31:57 75° 299° (WNW) 00:35:38 437.505
ITUPSAT 1 24 Jun 00:33:36 00:36:14 15° 32° (NNE) 00:38:52 437.325
PRISM 24 Jun 00:34:03 00:38:08 70° 294° (WNW) 00:42:13 437.425
MOZHAYETS 4 24 Jun 00:34:09 00:35:26 11° 27° (NNE) 00:36:44
O/OREOS (USA 219) 24 Jun 00:34:18 00:38:52 86° 314° (NW) 00:43:25 437.305
QB50P2 24 Jun 00:34:19 00:37:39 21° 88° (E) 00:40:57 145.880/145.840
SO-50 24 Jun 00:36:34 00:39:48 20° 238° (WSW) 00:43:03 436.795
ESTCUBE 1 24 Jun 00:39:37 00:43:52 39° 263° (W) 00:48:07 437.505/2401.250
BEESAT 3 24 Jun 00:40:31 00:44:33 70° 148° (SSE) 00:48:35 437.485
RS-15 24 Jun 00:41:52 00:54:14 82° 147° (SSE) 01:06:31 29.354- 29.394
FO-29 24 Jun 00:44:28 00:51:58 73° 296° (WNW) 00:59:49 435.910
BEESAT 24 Jun 00:44:29 00:47:23 16° 34° (NE) 00:50:17 436.000
UNISAT 6 24 Jun 00:48:07 00:52:47 60° 296° (WNW) 00:57:23 437.425
VELOX 1 24 Jun 00:48:59 00:53:23 81° 252° (WSW) 00:57:50 145.980
BUGSAT 1 24 Jun 00:59:07 01:00:53 12° 80° (E) 01:02:39 437.445
EO-79 24 Jun 00:59:19 01:03:07 29° 93° (E) 01:06:54 145.935-145.965
STRAND 1 24 Jun 01:00:06 01:02:47 14° 333° (NNW) 01:05:28 437.568
YUBILEINY 24 Jun 01:03:41 01:12:21 56° 299° (WNW) 01:21:06 435.215
NO-84 24 Jun 01:05:07 01:08:19 21° 154° (SSE) 01:11:36 435.350 FM
LO-87 24 Jun 01:07:58 01:09:58 14° 275° (W) 01:11:59 145.935 - 145.965
50 SAT 24 Jun 01:08:39 01:12:02 88° 74° (ENE) 01:15:27 437.505
AO-85 24 Jun 01:09:40 01:13:37 78° 341° (NNW) 01:17:36 145.980
DX 1 24 Jun 01:14:42 01:19:02 79° 68° (ENE) 01:23:24 434.975-435.025
DUCHIFAT 1 24 Jun 01:15:36 01:19:30 33° 95° (E) 01:23:22 145.980
NANOSAT C BR1 24 Jun 01:23:01 01:27:05 40° 98° (E) 01:31:08 145.865
SPROUT 24 Jun 01:24:52 01:28:59 44° 261° (W) 01:33:09 437.525
Gurwin Techsat 1B 24 Jun 01:34:50 01:35:26 10° 73° (ENE) 01:36:02 435.225
BEESAT 2 24 Jun 01:35:04 01:39:06 79° 153° (SSE) 01:43:13 435.950
UKube-1 24 Jun 01:35:43 01:40:03 85° 67° (ENE) 01:44:24 .
TIGRISAT 24 Jun 01:43:26 01:47:35 31° 307° (NW) 01:51:41 435.000
POLYITAN 1 24 Jun 01:58:55 02:03:15 77° 105° (ESE) 02:07:33 437.675
AIST 2D 24 Jun 02:00:05 02:03:33 52° 294° (WNW) 02:06:59 435.315
M-CUBED/EXP-1 PRIME 24 Jun 02:03:33 02:06:02 19° 320° (NW) 02:08:37 437.505
MOZHAYETS 4 24 Jun 02:07:25 02:11:19 27° 50° (NE) 02:15:12
ITUPSAT 1 24 Jun 02:08:33 02:12:58 37° 54° (NE) 02:17:24 437.325
QB50P2 24 Jun 02:09:40 02:14:00 85° 289° (WNW) 02:18:18 145.880/145.840
PRISM 24 Jun 02:09:57 02:12:51 19° 314° (NW) 02:15:46 437.425
O/OREOS (USA 219) 24 Jun 02:14:40 02:18:49 34° 335° (NNW) 02:22:57 437.305
BEESAT 3 24 Jun 02:18:13 02:22:16 64° 352° (N) 02:26:18 437.485
BEESAT 24 Jun 02:19:40 02:24:11 42° 57° (ENE) 02:28:43 436.000
KKS-1 24 Jun 02:20:15 02:22:18 13° 33° (NNE) 02:24:22 437.445
UNISAT 6 24 Jun 02:25:24 02:28:46 20° 317° (NW) 02:32:05 437.425
VELOX 1 24 Jun 02:27:29 02:30:34 18° 274° (W) 02:33:40 145.980
FO-29 24 Jun 02:29:44 02:36:10 34° 319° (NW) 02:42:55 435.910
BUGSAT 1 24 Jun 02:33:01 02:37:14 54° 102° (ESE) 02:41:24 437.445
Oscar 19 24 Jun 02:33:12 02:37:44 30° 92° (E) 02:42:14 437.125/150
EO-79 24 Jun 02:34:57 02:39:13 61° 294° (WNW) 02:43:26 145.935-145.965
NO-84 24 Jun 02:41:19 02:45:07 31° 175° (S) 02:48:59 435.350 FM
50 SAT 24 Jun 02:43:16 02:45:21 15° 272° (W) 02:47:28 437.505
CUBESAT XI-V 24 Jun 02:44:25 02:47:37 19° 42° (NE) 02:50:49 437.345
AO-85 24 Jun 02:50:22 02:54:17 62° 5° (N) 02:58:17 145.980
DUCHIFAT 1 24 Jun 02:51:13 02:55:24 54° 296° (WNW) 02:59:34 145.980
DX 1 24 Jun 02:52:13 02:55:44 23° 269° (W) 02:59:16 434.975-435.025
RS-15 24 Jun 02:54:49 03:07:18 80° 358° (N) 03:19:31 29.354- 29.394
STARS 24 Jun 02:55:12 02:57:11 13° 33° (NNE) 02:59:11 437.465
NANOSAT C BR1 24 Jun 02:58:48 03:02:54 45° 299° (WNW) 03:06:59 145.865
YUBILEINY 24 Jun 03:04:08 03:11:28 28° 329° (NNW) 03:18:50 435.215
Gurwin Techsat 1B 24 Jun 03:11:59 03:16:59 39° 96° (E) 03:21:57 435.225
BEESAT 2 24 Jun 03:13:00 03:17:03 62° 354° (N) 03:21:08 435.950
UKube-1 24 Jun 03:13:18 03:16:39 21° 271° (W) 03:20:00 .
TIGRISAT 24 Jun 03:21:06 03:23:03 12° 330° (NNW) 03:25:00 435.000
AIST 2D 24 Jun 03:34:23 03:36:05 13° 315° (NW) 03:37:45 435.315
POLYITAN 1 24 Jun 03:35:05 03:38:43 27° 308° (NW) 03:42:21 437.675
MOZHAYETS 4 24 Jun 03:43:25 03:48:04 86° 248° (WSW) 03:52:46
ITUPSAT 1 24 Jun 03:45:53 03:50:40 61° 256° (WSW) 03:55:29 437.325
QB50P2 24 Jun 03:45:57 03:49:20 23° 311° (NW) 03:52:43 145.880/145.840
KKS-1 24 Jun 03:53:46 03:57:48 35° 55° (NE) 04:01:52 437.445
O/OREOS (USA 219) 24 Jun 03:55:38 03:59:23 25° 360° (N) 04:03:07 437.305
BEESAT 3 24 Jun 03:56:07 04:00:11 69° 15° (NNE) 04:04:13 437.485
BEESAT 24 Jun 03:57:16 04:01:57 51° 259° (WSW) 04:06:40 436.000
BUGSAT 1 24 Jun 04:08:35 04:12:29 35° 303° (WNW) 04:16:22 437.445
EO-79 24 Jun 04:11:22 04:14:18 18° 316° (NW) 04:17:14 145.935-145.965
Oscar 19 24 Jun 04:12:24 04:17:33 74° 294° (WNW) 04:22:40 437.125/150
FO-29 24 Jun 04:14:25 04:19:23 20° 344° (NNW) 04:24:35 435.910
AO-7 24 Jun 04:14:52 04:22:07 31° 89° (E) 04:29:19 .
STRAND 1 24 Jun 04:15:07 04:17:19 13° 22° (NNE) 04:19:31 437.568
NO-84 24 Jun 04:18:21 04:22:00 26° 197° (SSW) 04:25:40 435.350 FM
CUBESAT XI-V 24 Jun 04:19:43 04:24:16 59° 65° (ENE) 04:28:50 437.345
DUCHIFAT 1 24 Jun 04:27:37 04:30:20 17° 318° (NW) 04:33:02 145.980
STARS 24 Jun 04:28:29 04:32:29 35° 55° (NE) 04:36:30 437.465
AO-85 24 Jun 04:30:52 04:34:51 80° 207° (SSW) 04:38:57 145.980
NANOSAT C BR1 24 Jun 04:35:22 04:37:46 15° 321° (NW) 04:40:09 145.865
ITAMSAT 1 24 Jun 04:45:49 04:50:42 37° 96° (E) 04:55:34 435.822/435.867
BEESAT 2 24 Jun 04:51:02 04:55:09 74° 18° (NNE) 04:59:14 435.950
Gurwin Techsat 1B 24 Jun 04:51:59 04:57:15 61° 298° (WNW) 05:02:29 435.225
YUBILEINY 24 Jun 05:05:42 05:12:04 21° 2° (N) 05:18:25 435.215
RS-15 24 Jun 05:08:02 05:20:29 86° 209° (SSW) 05:32:27 29.354- 29.394
POLYITAN 1 24 Jun 05:12:38 05:13:18 10° 330° (NNW) 05:13:58 437.675
MOZHAYETS 4 24 Jun 05:22:24 05:25:56 21° 273° (W) 05:29:28
ITUPSAT 1 24 Jun 05:26:37 05:29:30 16° 278° (W) 05:32:24 437.325
KKS-1 24 Jun 05:29:51 05:34:14 58° 256° (WSW) 05:38:40 437.445
BEESAT 3 24 Jun 05:33:48 05:37:47 55° 217° (SW) 05:41:43 437.485
O/OREOS (USA 219) 24 Jun 05:35:49 05:39:57 33° 25° (NNE) 05:44:04 437.305
BEESAT 24 Jun 05:38:41 05:40:53 13° 281° (W) 05:43:06 436.000
BUGSAT 1 24 Jun 05:45:03 05:46:50 12° 325° (NW) 05:48:37 437.445
STRAND 1 24 Jun 05:50:48 05:55:04 27° 45° (NE) 05:59:21 437.568
Oscar 19 24 Jun 05:52:09 05:56:17 25° 316° (NW) 06:00:22 437.125/150
NO-84 24 Jun 05:56:23 05:58:35 14° 217° (SW) 06:00:46 435.350 FM
FO-29 24 Jun 05:57:33 06:02:09 19° 9° (N) 06:07:00 435.910
CUBESAT XI-V 24 Jun 05:57:43 06:01:56 34° 266° (W) 06:06:10 437.345
STARS 24 Jun 06:04:20 06:08:42 58° 256° (WSW) 06:13:06 437.465
AO-7 24 Jun 06:07:45 06:16:13 80° 114° (ESE) 06:24:38 .
AO-85 24 Jun 06:11:27 06:14:51 27° 229° (SW) 06:18:22 145.980
LilacSat-2 24 Jun 06:23:36 06:24:54 11° 81° (E) 06:26:11 437.200
ITAMSAT 1 24 Jun 06:25:19 06:30:31 63° 298° (WNW) 06:35:41 435.822/435.867
XW-2B 24 Jun 06:26:22 06:27:37 11° 81° (E) 06:28:54 145.730 - 145.750
BEESAT 2 24 Jun 06:28:54 06:32:51 48° 219° (SW) 06:36:47 435.950
Gurwin Techsat 1B 24 Jun 06:32:22 06:36:25 23° 321° (NW) 06:40:28 435.225
XW-2C 24 Jun 06:41:03 06:43:17 15° 85° (E) 06:45:30 145.795 - 145.815
DOVE 4 24 Jun 06:43:23 06:47:36 32° 93° (E) 06:52:01 437.250
M-CUBED/EXP-1 PRIME 24 Jun 06:44:39 06:45:37 11° 28° (NNE) 06:46:36 437.505
KAITUO 1B 24 Jun 06:59:10 07:01:41 17° 87° (E) 07:04:10 145.475/437.950
YUBILEINY 24 Jun 07:05:04 07:12:35 29° 34° (NE) 07:20:02 435.215
KKS-1 24 Jun 07:09:28 07:11:46 14° 278° (W) 07:14:05 437.445
UNISAT 6 24 Jun 07:11:57 07:13:27 11° 28° (NNE) 07:14:57 437.425
BEESAT 3 24 Jun 07:12:03 07:14:41 17° 238° (WSW) 07:17:18 437.485
